Year,Month,Day,Hour,Minute,Value (Times are PST for temperature in C)
2010,08,15,00,00,18.50
2010,08,15,00,01,18.50
2010,08,15,00,02,18.50
2010,08,15,00,03,18.50
2010,08,15,00,04,18.50
2010,08,15,00,05,18.40
2010,08,15,00,06,18.40
2010,08,15,00,07,18.40
2010,08,15,00,08,18.30
2010,08,15,00,09,18.30
2010,08,15,00,10,18.20
2010,08,15,00,11,18.20
2010,08,15,00,12,18.20
2010,08,15,00,13,18.20
2010,08,15,00,14,18.20
2010,08,15,00,15,18.10
2010,08,15,00,16,18.10
2010,08,15,00,17,18.10
2010,08,15,00,18,18.00
2010,08,15,00,19,17.90
2010,08,15,00,20,17.90
2010,08,15,00,21,17.90
2010,08,15,00,22,17.90
2010,08,15,00,23,17.90
2010,08,15,00,24,17.90
2010,08,15,00,25,17.80
2010,08,15,00,26,17.80
2010,08,15,00,27,17.80
2010,08,15,00,28,17.80
2010,08,15,00,29,17.80
2010,08,15,00,30,17.70
2010,08,15,00,31,17.70
2010,08,15,00,32,17.70
2010,08,15,00,33,17.70
2010,08,15,00,34,17.70
2010,08,15,00,35,17.70
2010,08,15,00,36,17.70
2010,08,15,00,37,17.70
2010,08,15,00,38,17.70
2010,08,15,00,39,17.70
2010,08,15,00,40,17.70
2010,08,15,00,41,17.70
2010,08,15,00,42,17.70
2010,08,15,00,43,17.60
2010,08,15,00,44,17.60
2010,08,15,00,45,17.60
2010,08,15,00,46,17.60
2010,08,15,00,47,17.60
2010,08,15,00,48,17.50
2010,08,15,00,49,17.50
2010,08,15,00,50,17.50
2010,08,15,00,51,17.50
2010,08,15,00,52,17.50
2010,08,15,00,53,17.50
2010,08,15,00,54,17.50
2010,08,15,00,55,17.50
2010,08,15,00,56,17.40
2010,08,15,00,57,17.40
2010,08,15,00,58,17.40
2010,08,15,00,59,17.40
2010,08,15,01,00,17.50
2010,08,15,01,01,17.50
2010,08,15,01,02,17.50
2010,08,15,01,03,17.50
2010,08,15,01,04,17.40
2010,08,15,01,05,17.40
2010,08,15,01,06,17.40
2010,08,15,01,07,17.40
2010,08,15,01,08,17.40
2010,08,15,01,09,17.30
2010,08,15,01,10,17.30
2010,08,15,01,11,17.30
2010,08,15,01,12,17.30
2010,08,15,01,13,17.30
2010,08,15,01,14,17.30
2010,08,15,01,15,17.30
2010,08,15,01,16,17.20
2010,08,15,01,17,17.20
2010,08,15,01,18,17.20
2010,08,15,01,19,17.20
2010,08,15,01,20,17.20
2010,08,15,01,21,17.20
2010,08,15,01,22,17.20
2010,08,15,01,23,17.10
2010,08,15,01,24,17.10
2010,08,15,01,25,17.10
2010,08,15,01,26,17.10
2010,08,15,01,27,17.10
2010,08,15,01,28,17.10
2010,08,15,01,29,17.10
2010,08,15,01,30,17.00
2010,08,15,01,31,17.00
2010,08,15,01,32,17.00
2010,08,15,01,33,17.00
2010,08,15,01,34,17.00
2010,08,15,01,35,17.00
2010,08,15,01,36,16.90
2010,08,15,01,37,16.90
2010,08,15,01,38,16.90
2010,08,15,01,39,16.90
2010,08,15,01,40,16.90
2010,08,15,01,41,16.90
2010,08,15,01,42,16.80
2010,08,15,01,43,16.80
2010,08,15,01,44,16.80
2010,08,15,01,45,16.80
2010,08,15,01,46,16.80
2010,08,15,01,47,16.70
2010,08,15,01,48,16.70
2010,08,15,01,49,16.70
2010,08,15,01,50,16.70
2010,08,15,01,51,16.70
2010,08,15,01,52,16.70
2010,08,15,01,53,16.70
2010,08,15,01,54,16.70
2010,08,15,01,55,16.70
2010,08,15,01,56,16.70
2010,08,15,01,57,16.70
2010,08,15,01,58,16.70
2010,08,15,01,59,16.70
2010,08,15,02,00,16.70
2010,08,15,02,01,16.70
2010,08,15,02,02,16.70
2010,08,15,02,03,16.70
2010,08,15,02,04,16.70
2010,08,15,02,05,16.70
2010,08,15,02,06,16.70
2010,08,15,02,07,16.70
2010,08,15,02,08,16.70
2010,08,15,02,09,16.70
2010,08,15,02,10,16.70
2010,08,15,02,11,16.70
2010,08,15,02,12,16.80
2010,08,15,02,13,16.80
2010,08,15,02,14,16.80
2010,08,15,02,15,16.80
2010,08,15,02,16,16.80
2010,08,15,02,17,16.80
2010,08,15,02,18,16.80
2010,08,15,02,19,16.80
2010,08,15,02,20,16.80
2010,08,15,02,21,16.80
2010,08,15,02,22,16.80
2010,08,15,02,23,16.70
2010,08,15,02,24,16.70
2010,08,15,02,25,16.70
2010,08,15,02,26,16.70
2010,08,15,02,27,16.70
2010,08,15,02,28,16.70
2010,08,15,02,29,16.70
2010,08,15,02,30,16.70
2010,08,15,02,31,16.70
2010,08,15,02,32,16.70
2010,08,15,02,33,16.60
2010,08,15,02,34,16.60
2010,08,15,02,35,16.60
2010,08,15,02,36,16.60
2010,08,15,02,37,16.50
2010,08,15,02,38,16.40
2010,08,15,02,39,16.40
2010,08,15,02,40,16.40
2010,08,15,02,41,16.40
2010,08,15,02,42,16.40
2010,08,15,02,43,16.40
2010,08,15,02,44,16.40
2010,08,15,02,45,16.40
2010,08,15,02,46,16.40
2010,08,15,02,47,16.40
2010,08,15,02,48,16.40
2010,08,15,02,49,16.40
2010,08,15,02,50,16.40
2010,08,15,02,51,16.40
2010,08,15,02,52,16.40
2010,08,15,02,53,16.40
2010,08,15,02,54,16.40
2010,08,15,02,55,16.40
2010,08,15,02,56,16.40
2010,08,15,02,57,16.40
2010,08,15,02,58,16.40
2010,08,15,02,59,16.40
2010,08,15,03,00,16.40
2010,08,15,03,01,16.40
2010,08,15,03,02,16.30
2010,08,15,03,03,16.30
2010,08,15,03,04,16.30
2010,08,15,03,05,16.30
2010,08,15,03,06,16.30
2010,08,15,03,07,16.30
2010,08,15,03,08,16.30
2010,08,15,03,09,16.30
2010,08,15,03,10,16.30
2010,08,15,03,11,16.30
2010,08,15,03,12,16.30
2010,08,15,03,13,16.20
2010,08,15,03,14,16.20
2010,08,15,03,15,16.20
2010,08,15,03,16,16.20
2010,08,15,03,17,16.20
2010,08,15,03,18,16.10
2010,08,15,03,19,16.10
2010,08,15,03,20,16.20
2010,08,15,03,21,16.20
2010,08,15,03,22,16.20
2010,08,15,03,23,16.20
2010,08,15,03,24,16.20
2010,08,15,03,25,16.30
2010,08,15,03,26,16.30
2010,08,15,03,27,16.30
2010,08,15,03,28,16.30
2010,08,15,03,29,16.40
2010,08,15,03,30,16.40
2010,08,15,03,31,16.40
2010,08,15,03,32,16.40
2010,08,15,03,33,16.40
2010,08,15,03,34,16.40
2010,08,15,03,35,16.40
2010,08,15,03,36,16.40
2010,08,15,03,37,16.40
2010,08,15,03,38,16.40
2010,08,15,03,39,16.40
2010,08,15,03,40,16.40
2010,08,15,03,41,16.40
2010,08,15,03,42,16.40
2010,08,15,03,43,16.30
2010,08,15,03,44,16.30
2010,08,15,03,45,16.20
2010,08,15,03,46,16.20
2010,08,15,03,47,16.20
2010,08,15,03,48,16.10
2010,08,15,03,49,16.10
2010,08,15,03,50,16.10
2010,08,15,03,51,16.10
2010,08,15,03,52,16.10
2010,08,15,03,53,15.90
2010,08,15,03,54,15.90
2010,08,15,03,55,15.90
2010,08,15,03,56,15.90
2010,08,15,03,57,15.80
2010,08,15,03,58,15.80
2010,08,15,03,59,15.80
2010,08,15,04,00,15.80
2010,08,15,04,01,15.80
2010,08,15,04,02,15.80
2010,08,15,04,03,15.80
2010,08,15,04,04,15.80
2010,08,15,04,05,15.80
2010,08,15,04,06,15.80
2010,08,15,04,07,15.80
2010,08,15,04,08,15.80
2010,08,15,04,09,15.80
2010,08,15,04,10,15.80
2010,08,15,04,11,15.80
2010,08,15,04,12,15.80
2010,08,15,04,13,15.80
2010,08,15,04,14,15.80
2010,08,15,04,15,15.80
2010,08,15,04,16,15.80
2010,08,15,04,17,15.80
2010,08,15,04,18,15.80
2010,08,15,04,19,15.80
2010,08,15,04,20,15.80
2010,08,15,04,21,15.80
2010,08,15,04,22,15.80
2010,08,15,04,23,15.80
2010,08,15,04,24,15.70
2010,08,15,04,25,15.70
2010,08,15,04,26,15.70
2010,08,15,04,27,15.70
2010,08,15,04,28,15.70
2010,08,15,04,29,15.60
2010,08,15,04,30,15.60
2010,08,15,04,31,15.60
2010,08,15,04,32,15.50
2010,08,15,04,33,15.50
2010,08,15,04,34,15.50
2010,08,15,04,35,15.50
2010,08,15,04,36,15.40
2010,08,15,04,37,15.40
2010,08,15,04,38,15.40
2010,08,15,04,39,15.30
2010,08,15,04,40,15.30
2010,08,15,04,41,15.30
2010,08,15,04,42,15.30
2010,08,15,04,43,15.30
2010,08,15,04,44,15.30
2010,08,15,04,45,15.30
2010,08,15,04,46,15.30
2010,08,15,04,47,15.30
2010,08,15,04,48,15.30
2010,08,15,04,49,15.30
2010,08,15,04,50,15.30
2010,08,15,04,51,15.30
2010,08,15,04,52,15.30
2010,08,15,04,53,15.30
2010,08,15,04,54,15.30
2010,08,15,04,55,15.30
2010,08,15,04,56,15.30
2010,08,15,04,57,15.30
2010,08,15,04,58,15.30
2010,08,15,04,59,15.30
2010,08,15,05,00,15.30
2010,08,15,05,01,15.30
2010,08,15,05,02,15.30
2010,08,15,05,03,15.30
2010,08,15,05,04,15.40
2010,08,15,05,05,15.40
2010,08,15,05,06,15.40
2010,08,15,05,07,15.40
2010,08,15,05,08,15.40
2010,08,15,05,09,15.50
2010,08,15,05,10,15.50
2010,08,15,05,11,15.60
2010,08,15,05,12,15.60
2010,08,15,05,13,15.70
2010,08,15,05,14,15.70
2010,08,15,05,15,15.70
2010,08,15,05,16,15.70
2010,08,15,05,17,15.80
2010,08,15,05,18,15.80
2010,08,15,05,19,15.80
2010,08,15,05,20,15.80
2010,08,15,05,21,15.80
2010,08,15,05,22,15.80
2010,08,15,05,23,15.80
2010,08,15,05,24,15.80
2010,08,15,05,25,15.80
2010,08,15,05,26,15.80
2010,08,15,05,27,15.80
2010,08,15,05,28,15.80
2010,08,15,05,29,15.80
2010,08,15,05,30,15.80
2010,08,15,05,31,15.80
2010,08,15,05,32,15.80
2010,08,15,05,33,15.80
2010,08,15,05,34,15.80
2010,08,15,05,35,15.80
2010,08,15,05,36,15.80
2010,08,15,05,37,15.80
2010,08,15,05,38,15.80
2010,08,15,05,39,15.80
2010,08,15,05,40,15.80
2010,08,15,05,41,15.80
2010,08,15,05,42,15.80
2010,08,15,05,43,15.80
2010,08,15,05,44,15.80
2010,08,15,05,45,15.80
2010,08,15,05,46,15.80
2010,08,15,05,47,15.80
2010,08,15,05,48,15.80
2010,08,15,05,49,15.80
2010,08,15,05,50,15.80
2010,08,15,05,51,15.70
2010,08,15,05,52,15.70
2010,08,15,05,53,15.70
2010,08,15,05,54,15.70
2010,08,15,05,55,15.70
2010,08,15,05,56,15.60
2010,08,15,05,57,15.60
2010,08,15,05,58,15.60
2010,08,15,05,59,15.60
2010,08,15,06,00,15.60
2010,08,15,06,01,15.60
2010,08,15,06,02,15.60
2010,08,15,06,03,15.60
2010,08,15,06,04,15.60
2010,08,15,06,05,15.60
2010,08,15,06,06,15.70
2010,08,15,06,07,15.70
2010,08,15,06,08,15.80
2010,08,15,06,09,15.80
2010,08,15,06,10,15.80
2010,08,15,06,11,15.90
2010,08,15,06,12,15.90
2010,08,15,06,13,16.00
2010,08,15,06,14,16.10
2010,08,15,06,15,16.10
2010,08,15,06,16,16.20
2010,08,15,06,17,16.30
2010,08,15,06,18,16.40
2010,08,15,06,19,16.40
2010,08,15,06,20,16.50
2010,08,15,06,21,16.60
2010,08,15,06,22,16.70
2010,08,15,06,23,16.70
2010,08,15,06,24,16.70
2010,08,15,06,25,16.70
2010,08,15,06,26,16.70
2010,08,15,06,27,16.70
2010,08,15,06,28,16.70
2010,08,15,06,29,16.70
2010,08,15,06,30,16.70
2010,08,15,06,31,16.70
2010,08,15,06,32,16.70
2010,08,15,06,33,16.70
2010,08,15,06,34,16.70
2010,08,15,06,35,16.70
2010,08,15,06,36,16.70
2010,08,15,06,37,16.70
2010,08,15,06,38,16.60
2010,08,15,06,39,16.60
2010,08,15,06,40,16.60
2010,08,15,06,41,16.60
2010,08,15,06,42,16.60
2010,08,15,06,43,16.60
2010,08,15,06,44,16.60
2010,08,15,06,45,16.50
2010,08,15,06,46,16.40
2010,08,15,06,47,16.30
2010,08,15,06,48,16.20
2010,08,15,06,49,16.10
2010,08,15,06,50,16.00
2010,08,15,06,51,15.90
2010,08,15,06,52,15.80
2010,08,15,06,53,15.80
2010,08,15,06,54,15.80
2010,08,15,06,55,15.70
2010,08,15,06,56,15.70
2010,08,15,06,57,15.60
2010,08,15,06,58,15.60
2010,08,15,06,59,15.60
2010,08,15,07,00,15.60
2010,08,15,07,01,15.60
2010,08,15,07,02,15.60
2010,08,15,07,03,15.60
2010,08,15,07,04,15.60
2010,08,15,07,05,15.60
2010,08,15,07,06,15.60
2010,08,15,07,07,15.60
2010,08,15,07,08,15.60
2010,08,15,07,09,15.60
2010,08,15,07,10,15.60
2010,08,15,07,11,15.60
2010,08,15,07,12,15.60
2010,08,15,07,13,15.60
2010,08,15,07,14,15.60
2010,08,15,07,15,15.60
2010,08,15,07,16,15.70
2010,08,15,07,17,15.70
2010,08,15,07,18,15.70
2010,08,15,07,19,15.70
2010,08,15,07,20,15.80
2010,08,15,07,21,15.80
2010,08,15,07,22,15.80
2010,08,15,07,23,15.90
2010,08,15,07,24,15.90
2010,08,15,07,25,16.00
2010,08,15,07,26,16.10
2010,08,15,07,27,16.10
2010,08,15,07,28,16.10
2010,08,15,07,29,16.10
2010,08,15,07,30,16.10
2010,08,15,07,31,16.20
2010,08,15,07,32,16.20
2010,08,15,07,33,16.20
2010,08,15,07,34,16.30
2010,08,15,07,35,16.30
2010,08,15,07,36,16.30
2010,08,15,07,37,16.40
2010,08,15,07,38,16.40
2010,08,15,07,39,16.40
2010,08,15,07,40,16.50
2010,08,15,07,41,16.60
2010,08,15,07,42,16.70
2010,08,15,07,43,16.70
2010,08,15,07,44,16.80
2010,08,15,07,45,16.80
2010,08,15,07,46,16.90
2010,08,15,07,47,17.00
2010,08,15,07,48,17.00
2010,08,15,07,49,17.10
2010,08,15,07,50,17.20
2010,08,15,07,51,17.20
2010,08,15,07,52,17.30
2010,08,15,07,53,17.40
2010,08,15,07,54,17.50
2010,08,15,07,55,17.50
2010,08,15,07,56,17.70
2010,08,15,07,57,17.80
2010,08,15,07,58,17.90
2010,08,15,07,59,18.00
2010,08,15,08,00,18.20
2010,08,15,08,01,18.30
2010,08,15,08,02,18.40
2010,08,15,08,03,18.50
2010,08,15,08,04,18.70
2010,08,15,08,05,18.80
2010,08,15,08,06,18.90
2010,08,15,08,07,19.10
2010,08,15,08,08,19.20
2010,08,15,08,09,19.40
2010,08,15,08,10,19.50
2010,08,15,08,11,19.60
2010,08,15,08,12,19.70
2010,08,15,08,13,19.80
2010,08,15,08,14,19.90
2010,08,15,08,15,20.10
2010,08,15,08,16,20.30
2010,08,15,08,17,20.50
2010,08,15,08,18,20.80
2010,08,15,08,19,21.10
2010,08,15,08,20,21.40
2010,08,15,08,21,21.60
2010,08,15,08,22,21.90
2010,08,15,08,23,22.10
2010,08,15,08,24,22.30
2010,08,15,08,25,22.50
2010,08,15,08,26,22.70
2010,08,15,08,27,22.80
2010,08,15,08,28,22.90
2010,08,15,08,29,23.10
2010,08,15,08,30,23.20
2010,08,15,08,31,23.30
2010,08,15,08,32,23.40
2010,08,15,08,33,23.60
2010,08,15,08,34,23.60
2010,08,15,08,35,23.70
2010,08,15,08,36,23.80
2010,08,15,08,37,23.90
2010,08,15,08,38,23.90
2010,08,15,08,39,24.00
2010,08,15,08,40,24.10
2010,08,15,08,41,24.10
2010,08,15,08,42,24.20
2010,08,15,08,43,24.30
2010,08,15,08,44,24.40
2010,08,15,08,45,24.40
2010,08,15,08,46,24.50
2010,08,15,08,47,24.50
2010,08,15,08,48,24.70
2010,08,15,08,49,24.70
2010,08,15,08,50,24.80
2010,08,15,08,51,24.90
2010,08,15,08,52,24.90
2010,08,15,08,53,24.90
2010,08,15,08,54,24.90
2010,08,15,08,55,24.90
2010,08,15,08,56,25.00
2010,08,15,08,57,25.00
2010,08,15,08,58,25.00
2010,08,15,08,59,25.10
2010,08,15,09,00,25.10
2010,08,15,09,01,25.10
2010,08,15,09,02,25.20
2010,08,15,09,03,25.20
2010,08,15,09,04,25.20
2010,08,15,09,05,25.30
2010,08,15,09,06,25.30
2010,08,15,09,07,25.30
2010,08,15,09,08,25.30
2010,08,15,09,09,25.40
2010,08,15,09,10,25.40
2010,08,15,09,11,25.40
2010,08,15,09,12,25.40
2010,08,15,09,13,25.40
2010,08,15,09,14,25.40
2010,08,15,09,15,25.40
2010,08,15,09,16,25.40
2010,08,15,09,17,25.40
2010,08,15,09,18,25.40
2010,08,15,09,19,25.40
2010,08,15,09,20,25.40
2010,08,15,09,21,25.40
2010,08,15,09,22,25.40
2010,08,15,09,23,25.40
2010,08,15,09,24,25.50
2010,08,15,09,25,25.50
2010,08,15,09,26,25.50
2010,08,15,09,27,25.50
2010,08,15,09,28,25.50
2010,08,15,09,29,25.60
2010,08,15,09,30,25.60
2010,08,15,09,31,25.70
2010,08,15,09,32,25.70
2010,08,15,09,33,25.80
2010,08,15,09,34,25.80
2010,08,15,09,35,25.80
2010,08,15,09,36,25.80
2010,08,15,09,37,25.80
2010,08,15,09,38,25.80
2010,08,15,09,39,25.70
2010,08,15,09,40,25.80
2010,08,15,09,41,25.80
2010,08,15,09,42,25.70
2010,08,15,09,43,25.70
2010,08,15,09,44,25.70
2010,08,15,09,45,25.70
2010,08,15,09,46,25.70
2010,08,15,09,47,25.70
2010,08,15,09,48,25.70
2010,08,15,09,49,25.80
2010,08,15,09,50,25.80
2010,08,15,09,51,25.90
2010,08,15,09,52,25.90
2010,08,15,09,53,26.00
2010,08,15,09,54,26.00
2010,08,15,09,55,26.10
2010,08,15,09,56,26.20
2010,08,15,09,57,26.30
2010,08,15,09,58,26.50
2010,08,15,09,59,26.60
2010,08,15,10,00,26.70
2010,08,15,10,01,26.70
2010,08,15,10,02,26.70
2010,08,15,10,03,26.70
2010,08,15,10,04,26.70
2010,08,15,10,05,26.60
2010,08,15,10,06,26.60
2010,08,15,10,07,26.70
2010,08,15,10,08,26.70
2010,08,15,10,09,26.70
2010,08,15,10,10,26.70
2010,08,15,10,11,26.70
2010,08,15,10,12,26.70
2010,08,15,10,13,26.70
2010,08,15,10,14,26.70
2010,08,15,10,15,26.70
2010,08,15,10,16,26.70
2010,08,15,10,17,26.70
2010,08,15,10,18,26.70
2010,08,15,10,19,26.80
2010,08,15,10,20,26.80
2010,08,15,10,21,26.90
2010,08,15,10,22,27.00
2010,08,15,10,23,27.10
2010,08,15,10,24,27.10
2010,08,15,10,25,27.20
2010,08,15,10,26,27.20
2010,08,15,10,27,27.20
2010,08,15,10,28,27.20
2010,08,15,10,29,27.20
2010,08,15,10,30,27.10
2010,08,15,10,31,26.90
2010,08,15,10,32,26.90
2010,08,15,10,33,26.80
2010,08,15,10,34,26.90
2010,08,15,10,35,26.90
2010,08,15,10,36,26.90
2010,08,15,10,37,26.80
2010,08,15,10,38,26.80
2010,08,15,10,39,26.80
2010,08,15,10,40,26.90
2010,08,15,10,41,27.00
2010,08,15,10,42,27.10
2010,08,15,10,43,27.20
2010,08,15,10,44,27.20
2010,08,15,10,45,27.20
2010,08,15,10,46,27.30
2010,08,15,10,47,27.30
2010,08,15,10,48,27.30
2010,08,15,10,49,27.30
2010,08,15,10,50,27.30
2010,08,15,10,51,27.40
2010,08,15,10,52,27.40
2010,08,15,10,53,27.40
2010,08,15,10,54,27.50
2010,08,15,10,55,27.70
2010,08,15,10,56,27.90
2010,08,15,10,57,28.00
2010,08,15,10,58,28.10
2010,08,15,10,59,28.20
2010,08,15,11,00,28.20
2010,08,15,11,01,28.30
2010,08,15,11,02,28.30
2010,08,15,11,03,28.40
2010,08,15,11,04,28.40
2010,08,15,11,05,28.50
2010,08,15,11,06,28.60
2010,08,15,11,07,28.60
2010,08,15,11,08,28.70
2010,08,15,11,09,28.80
2010,08,15,11,10,28.80
2010,08,15,11,11,28.90
2010,08,15,11,12,28.80
2010,08,15,11,13,28.90
2010,08,15,11,14,28.90
2010,08,15,11,15,28.80
2010,08,15,11,16,28.80
2010,08,15,11,17,28.80
2010,08,15,11,18,28.80
2010,08,15,11,19,28.80
2010,08,15,11,20,28.90
2010,08,15,11,21,28.90
2010,08,15,11,22,29.00
2010,08,15,11,23,29.20
2010,08,15,11,24,29.30
2010,08,15,11,25,29.40
2010,08,15,11,26,29.40
2010,08,15,11,27,29.40
2010,08,15,11,28,29.50
2010,08,15,11,29,29.50
2010,08,15,11,30,29.50
2010,08,15,11,31,29.40
2010,08,15,11,32,29.20
2010,08,15,11,33,29.20
2010,08,15,11,34,29.20
2010,08,15,11,35,29.20
2010,08,15,11,36,29.20
2010,08,15,11,37,29.30
2010,08,15,11,38,29.30
2010,08,15,11,39,29.40
2010,08,15,11,40,29.50
2010,08,15,11,41,29.50
2010,08,15,11,42,29.50
2010,08,15,11,43,29.60
2010,08,15,11,44,29.50
2010,08,15,11,45,29.50
2010,08,15,11,46,29.60
2010,08,15,11,47,29.60
2010,08,15,11,48,29.70
2010,08,15,11,49,29.80
2010,08,15,11,50,29.80
2010,08,15,11,51,29.80
2010,08,15,11,52,29.80
2010,08,15,11,53,29.80
2010,08,15,11,54,29.80
2010,08,15,11,55,29.70
2010,08,15,11,56,29.70
2010,08,15,11,57,29.70
2010,08,15,11,58,29.70
2010,08,15,11,59,29.70
2010,08,15,12,00,29.80
2010,08,15,12,01,29.80
2010,08,15,12,02,29.80
2010,08,15,12,03,29.90
2010,08,15,12,04,29.90
2010,08,15,12,05,29.90
2010,08,15,12,06,29.90
2010,08,15,12,07,30.00
2010,08,15,12,08,30.10
2010,08,15,12,09,30.10
2010,08,15,12,10,30.00
2010,08,15,12,11,30.00
2010,08,15,12,12,30.10
2010,08,15,12,13,30.10
2010,08,15,12,14,30.10
2010,08,15,12,15,30.00
2010,08,15,12,16,29.90
2010,08,15,12,17,29.90
2010,08,15,12,18,29.90
2010,08,15,12,19,29.90
2010,08,15,12,20,29.80
2010,08,15,12,21,29.80
2010,08,15,12,22,29.80
2010,08,15,12,23,29.90
2010,08,15,12,24,30.00
2010,08,15,12,25,30.10
2010,08,15,12,26,30.10
2010,08,15,12,27,30.20
2010,08,15,12,28,30.20
2010,08,15,12,29,30.30
2010,08,15,12,30,30.40
2010,08,15,12,31,30.50
2010,08,15,12,32,30.70
2010,08,15,12,33,30.80
2010,08,15,12,34,30.90
2010,08,15,12,35,31.00
2010,08,15,12,36,30.90
2010,08,15,12,37,30.90
2010,08,15,12,38,30.90
2010,08,15,12,39,30.90
2010,08,15,12,40,31.00
2010,08,15,12,41,31.00
2010,08,15,12,42,31.00
2010,08,15,12,43,31.10
2010,08,15,12,44,31.10
2010,08,15,12,45,31.00
2010,08,15,12,46,31.00
2010,08,15,12,47,31.00
2010,08,15,12,48,31.00
2010,08,15,12,49,31.00
2010,08,15,12,50,31.00
2010,08,15,12,51,31.00
2010,08,15,12,52,30.90
2010,08,15,12,53,30.90
2010,08,15,12,54,31.10
2010,08,15,12,55,31.20
2010,08,15,12,56,31.30
2010,08,15,12,57,31.30
2010,08,15,12,58,31.40
2010,08,15,12,59,31.60
2010,08,15,13,00,31.50
2010,08,15,13,01,31.40
2010,08,15,13,02,31.40
2010,08,15,13,03,31.30
2010,08,15,13,04,31.20
2010,08,15,13,05,31.10
2010,08,15,13,06,31.10
2010,08,15,13,07,31.10
2010,08,15,13,08,31.10
2010,08,15,13,09,31.10
2010,08,15,13,10,31.10
2010,08,15,13,11,31.20
2010,08,15,13,12,31.20
2010,08,15,13,13,31.20
2010,08,15,13,14,31.20
2010,08,15,13,15,31.20
2010,08,15,13,16,31.30
2010,08,15,13,17,31.40
2010,08,15,13,18,31.50
2010,08,15,13,19,31.60
2010,08,15,13,20,31.70
2010,08,15,13,21,31.90
2010,08,15,13,22,31.90
2010,08,15,13,23,32.10
2010,08,15,13,24,32.20
2010,08,15,13,25,32.20
2010,08,15,13,26,32.30
2010,08,15,13,27,32.30
2010,08,15,13,28,32.20
2010,08,15,13,29,32.20
2010,08,15,13,30,32.20
2010,08,15,13,31,32.20
2010,08,15,13,32,32.30
2010,08,15,13,33,32.30
2010,08,15,13,34,32.30
2010,08,15,13,35,32.40
2010,08,15,13,36,32.50
2010,08,15,13,37,32.50
2010,08,15,13,38,32.50
2010,08,15,13,39,32.50
2010,08,15,13,40,32.40
2010,08,15,13,41,32.40
2010,08,15,13,42,32.30
2010,08,15,13,43,32.30
2010,08,15,13,44,32.30
2010,08,15,13,45,32.30
2010,08,15,13,46,32.40
2010,08,15,13,47,32.40
2010,08,15,13,48,32.60
2010,08,15,13,49,32.70
2010,08,15,13,50,32.80
2010,08,15,13,51,32.80
2010,08,15,13,52,32.80
2010,08,15,13,53,32.80
2010,08,15,13,54,32.80
2010,08,15,13,55,32.80
2010,08,15,13,56,32.80
2010,08,15,13,57,33.00
2010,08,15,13,58,33.00
2010,08,15,13,59,32.80
2010,08,15,14,00,32.30
2010,08,15,14,01,32.00
2010,08,15,14,02,31.70
2010,08,15,14,03,31.50
2010,08,15,14,04,31.40
2010,08,15,14,05,31.30
2010,08,15,14,06,31.30
2010,08,15,14,07,31.20
2010,08,15,14,08,31.10
2010,08,15,14,09,31.00
2010,08,15,14,10,30.90
2010,08,15,14,11,30.70
2010,08,15,14,12,30.30
2010,08,15,14,13,30.10
2010,08,15,14,14,29.90
2010,08,15,14,15,29.70
2010,08,15,14,16,29.50
2010,08,15,14,17,29.40
2010,08,15,14,18,29.10
2010,08,15,14,19,28.70
2010,08,15,14,20,28.50
2010,08,15,14,21,28.30
2010,08,15,14,22,28.10
2010,08,15,14,23,28.00
2010,08,15,14,24,28.00
2010,08,15,14,25,28.00
2010,08,15,14,26,27.90
2010,08,15,14,27,27.90
2010,08,15,14,28,27.80
2010,08,15,14,29,27.70
2010,08,15,14,30,27.70
2010,08,15,14,31,27.60
2010,08,15,14,32,27.60
2010,08,15,14,33,27.50
2010,08,15,14,34,27.50
2010,08,15,14,35,27.60
2010,08,15,14,36,27.80
2010,08,15,14,37,28.00
2010,08,15,14,38,28.10
2010,08,15,14,39,28.10
2010,08,15,14,40,28.10
2010,08,15,14,41,28.20
2010,08,15,14,42,28.20
2010,08,15,14,43,28.10
2010,08,15,14,44,28.10
2010,08,15,14,45,28.10
2010,08,15,14,46,28.00
2010,08,15,14,47,27.90
2010,08,15,14,48,27.90
2010,08,15,14,49,27.80
2010,08,15,14,50,27.80
2010,08,15,14,51,27.80
2010,08,15,14,52,27.80
2010,08,15,14,53,27.80
2010,08,15,14,54,27.90
2010,08,15,14,55,27.80
2010,08,15,14,56,27.80
2010,08,15,14,57,27.80
2010,08,15,14,58,27.80
2010,08,15,14,59,27.80
2010,08,15,15,00,27.80
2010,08,15,15,01,27.80
2010,08,15,15,02,27.80
2010,08,15,15,03,27.70
2010,08,15,15,04,27.80
2010,08,15,15,05,27.80
2010,08,15,15,06,27.70
2010,08,15,15,07,27.70
2010,08,15,15,08,27.80
2010,08,15,15,09,27.80
2010,08,15,15,10,27.70
2010,08,15,15,11,27.70
2010,08,15,15,12,27.70
2010,08,15,15,13,27.80
2010,08,15,15,14,27.80
2010,08,15,15,15,27.90
2010,08,15,15,16,27.90
2010,08,15,15,17,27.90
2010,08,15,15,18,27.90
2010,08,15,15,19,27.80
2010,08,15,15,20,27.70
2010,08,15,15,21,27.70
2010,08,15,15,22,27.70
2010,08,15,15,23,27.60
2010,08,15,15,24,27.60
2010,08,15,15,25,27.50
2010,08,15,15,26,27.40
2010,08,15,15,27,27.40
2010,08,15,15,28,27.40
2010,08,15,15,29,27.30
2010,08,15,15,30,27.30
2010,08,15,15,31,27.30
2010,08,15,15,32,27.30
2010,08,15,15,33,27.30
2010,08,15,15,34,27.30
2010,08,15,15,35,27.20
2010,08,15,15,36,27.20
2010,08,15,15,37,27.10
2010,08,15,15,38,27.00
2010,08,15,15,39,26.90
2010,08,15,15,40,26.80
2010,08,15,15,41,26.80
2010,08,15,15,42,26.80
2010,08,15,15,43,26.80
2010,08,15,15,44,26.70
2010,08,15,15,45,26.70
2010,08,15,15,46,26.60
2010,08,15,15,47,26.60
2010,08,15,15,48,26.60
2010,08,15,15,49,26.60
2010,08,15,15,50,26.50
2010,08,15,15,51,26.40
2010,08,15,15,52,26.30
2010,08,15,15,53,26.20
2010,08,15,15,54,26.00
2010,08,15,15,55,26.00
2010,08,15,15,56,25.90
2010,08,15,15,57,26.00
2010,08,15,15,58,26.00
2010,08,15,15,59,26.00
2010,08,15,16,00,26.10
2010,08,15,16,01,26.10
2010,08,15,16,02,26.10
2010,08,15,16,03,26.10
2010,08,15,16,04,26.20
2010,08,15,16,05,26.20
2010,08,15,16,06,26.20
2010,08,15,16,07,26.20
2010,08,15,16,08,26.20
2010,08,15,16,09,26.20
2010,08,15,16,10,26.20
2010,08,15,16,11,26.30
2010,08,15,16,12,26.40
2010,08,15,16,13,26.50
2010,08,15,16,14,26.70
2010,08,15,16,15,26.80
2010,08,15,16,16,26.80
2010,08,15,16,17,26.80
2010,08,15,16,18,26.70
2010,08,15,16,19,26.70
2010,08,15,16,20,26.60
2010,08,15,16,21,26.70
2010,08,15,16,22,26.80
2010,08,15,16,23,26.90
2010,08,15,16,24,27.00
2010,08,15,16,25,27.10
2010,08,15,16,26,27.20
2010,08,15,16,27,27.30
2010,08,15,16,28,27.40
2010,08,15,16,29,27.40
2010,08,15,16,30,27.40
2010,08,15,16,31,27.30
2010,08,15,16,32,27.30
2010,08,15,16,33,27.40
2010,08,15,16,34,27.50
2010,08,15,16,35,27.60
2010,08,15,16,36,27.70
2010,08,15,16,37,27.60
2010,08,15,16,38,27.60
2010,08,15,16,39,27.60
2010,08,15,16,40,27.60
2010,08,15,16,41,27.60
2010,08,15,16,42,27.70
2010,08,15,16,43,27.70
2010,08,15,16,44,27.70
2010,08,15,16,45,27.70
2010,08,15,16,46,27.80
2010,08,15,16,47,27.80
2010,08,15,16,48,27.80
2010,08,15,16,49,27.80
2010,08,15,16,50,27.90
2010,08,15,16,51,27.80
2010,08,15,16,52,27.80
2010,08,15,16,53,27.70
2010,08,15,16,54,27.70
2010,08,15,16,55,27.80
2010,08,15,16,56,27.80
2010,08,15,16,57,27.80
2010,08,15,16,58,27.80
2010,08,15,16,59,27.80
2010,08,15,17,00,27.80
2010,08,15,17,01,27.90
2010,08,15,17,02,27.90
2010,08,15,17,03,27.90
2010,08,15,17,04,27.80
2010,08,15,17,05,27.70
2010,08,15,17,06,27.60
2010,08,15,17,07,27.60
2010,08,15,17,08,27.60
2010,08,15,17,09,27.50
2010,08,15,17,10,27.40
2010,08,15,17,11,27.40
2010,08,15,17,12,27.40
2010,08,15,17,13,27.30
2010,08,15,17,14,27.30
2010,08,15,17,15,27.40
2010,08,15,17,16,27.40
2010,08,15,17,17,27.30
2010,08,15,17,18,27.30
2010,08,15,17,19,27.50